Regional Weather Roundup
Issued by NWS

Home | Current Version | Previous Version | Graphics & Text | Print | Product List | Glossary On
Versions: 1 2 3 4 5 6 7 8 9 10 11 12 13 14 15 16 17 18 19 20 21 22 23 24 25 26 27 28 29 30 31 32 33 34 35 36 37 38 39 40 41 42 43 44 45 46 47 48 49 50
000
ASUS43 KFSD 231202
RWRSD

WEATHER ROUNDUP FOR SOUTH DAKOTA
NATIONAL WEATHER SERVICE SIOUX FALLS SD
600 AM CST THU NOV 23 2017

NOTE: "FAIR" INDICATES FEW OR NO CLOUDS BELOW 12,000 FEET WITH NO
SIGNIFICANT WEATHER AND/OR OBSTRUCTIONS TO VISIBILITY.


SDZ001>005-009-010-012>017-231300-
NORTHWEST AND NORTH CENTRAL SOUTH DAKOTA

CITY           SKY/WX    TMP DP  RH WIND       PRES   REMARKS
BUFFALO          N/A     47  38  71 W13       29.84F
FAITH            N/A     45  39  79 W8        29.91F
MOBRIDGE       CLEAR     32  29  88 SE6       29.88F WCI  26
$$

SDZ012>016-024>037-041>051-057-063-072>074-231300-
SOUTHWEST AND SOUTH CENTRAL SOUTH DAKOTA

CITY           SKY/WX    TMP DP  RH WIND       PRES   REMARKS
RAPID CTY ARPT PTCLDY    42  35  76 NW5       29.98F
PIERRE         CLEAR     35  35 100 CALM      29.94F
CUSTER         CLOUDY    45  34  65 W10       30.07F
ELLSWORTH AFB  PTCLDY    44  36  73 W7        29.98F
PHILIP         CLOUDY    41  37  86 W8        29.96F
PINE RIDGE     CLOUDY    39  36  89 CALM      30.05F
SPEARFISH      FAIR      57  36  44 W7G14     29.99F
WINNER         FAIR      42  36  79 SW7       29.98F
$$

SDZ004>011-016>023-039-040-231300-
NORTHEAST SOUTH DAKOTA

CITY           SKY/WX    TMP DP  RH WIND       PRES   REMARKS
ABERDEEN       CLOUDY    17  16  95 S5        29.97F WCI  10
WATERTOWN      CLOUDY    20  19  96 CALM      29.95S
BROOKINGS      CLOUDY    24  21  88 W8        29.98R WCI  15
SISSETON         N/A     22  18  85 SW5       29.95S WCI  16
$$

SDZ017-020-022-023-036>040-048>070-231300-
SOUTHEAST SOUTH DAKOTA

CITY           SKY/WX    TMP DP  RH WIND       PRES   REMARKS
SIOUX FALLS    CLOUDY    30  25  81 NW6       29.99R WCI  24
HURON          CLOUDY    24  22  91 CALM      29.98F
CHAMBERLAIN    CLEAR     34  34 100 CALM      29.98F
MITCHELL       CLOUDY    27  24  89 SW5       30.00F WCI  22
YANKTON        CLOUDY    34  29  82 W7        30.02R WCI  28
$$

ABBREVIATIONS USED IN REMARKS
   TC - TEMPERATURE IN CELSIUS
  WCI - WIND CHILL INDEX
   HX - HEAT INDEX
  VSB - VISIBILITY




USA.gov is the U.S. government's official web portal to all federal, state and local government web resources and services.